DW9584 Weather Reports


time (UTC)temp
C
wind
direction
speed
KPH
gust
KPH
rain 1hr
cm
rain 24hr
cm
rain mn
cm
humidity
%
barometer
mb
20260831013011 23 229 0.0 0.0 0.00 0.00 0.00 91 1019.5
20260831011517 23 229 0.0 0.0 0.00 0.00 0.00 90 1019.5
20260831010015 24 229 0.0 0.0 0.00 0.00 0.00 88 1019.5
20260831004518 24 229 0.0 3.2 0.00 0.00 0.00 87 1019.2
20260831003019 24 229 0.0 0.0 0.00 0.00 0.00 87 1018.8
20260831001513 24 229 0.0 0.0 0.00 0.00 0.00 86 1018.7
20260831000018 24 229 0.0 0.0 0.00 0.00 0.00 86 1018.6
20260830234521 24 229 0.0 0.0 0.00 0.00 0.00 84 1018.7
20260830233026 25 229 0.0 0.0 0.00 0.00 0.00 83 1018.8
20260830231516 25 229 0.0 0.0 0.00 0.00 0.00 81 1018.8
20260830230023 26 229 0.0 3.2 0.00 0.00 0.00 79 1018.8
20260830224518 26 195 0.0 3.2 0.00 0.00 0.00 76 1018.7
20260830223018 27 248 0.0 4.8 0.00 0.00 0.00 74 1018.8
20260830221515 27 207 0.0 4.8 0.00 0.00 0.00 75 1018.8
20260830220039 27 206 0.0 3.2 0.00 0.00 0.00 74 1018.6
20260830214521 26 243 1.6 4.8 0.00 0.00 0.00 74 1018.7
20260830213026 27 314 0.0 4.8 0.00 0.00 0.00 74 1018.6
20260830211509 27 114 0.0 8.0 0.00 0.00 0.00 75 1018.6
20260830210017 27 243 1.6 11.3 0.00 0.00 0.00 72 1018.5
20260830204522 27 307 0.0 4.8 0.00 0.00 0.00 73 1018.6
20260830203027 27 250 0.0 4.8 0.00 0.00 0.00 73 1018.7
20260830201524 27 234 1.6 9.7 0.00 0.00 0.00 72 1018.7
20260830200031 27 245 0.0 6.4 0.00 0.00 0.00 72 1019.0
20260830194513 27 134 1.6 6.4 0.00 0.00 0.00 72 1019.1
20260830193013 27 223 0.0 8.0 0.00 0.00 0.00 71 1019.5
20260830191535 27 245 1.6 4.8 0.00 0.00 0.00 70 1019.5
20260830190006 27 349 1.6 4.8 0.00 0.00 0.00 72 1019.6
20260830184527 27 242 0.0 6.4 0.00 0.00 0.00 72 1019.8
20260830183028 27 237 0.0 4.8 0.00 0.00 0.00 72 1020.2
20260830181527 27 295 0.0 3.2 0.00 0.00 0.00 1020.2
20260830180033 27 167 1.6 3.2 0.00 0.00 0.00 73 1020.3
20260830174516 26 196 1.6 6.4 0.00 0.00 0.00 72 1020.5
20260830173015 26 68 1.6 8.0 0.00 0.00 0.00 74 1020.8
20260830171511 26 134 1.6 6.4 0.00 0.00 0.00 72 1021.0
20260830170010 27 359 0.0 6.4 0.00 0.00 0.00 72 1021.1
20260830164530 26 282 0.0 8.0 0.00 0.00 0.00 73 1021.2
20260830163038 26 294 0.0 4.8 0.00 0.00 0.00 76 1021.4
20260830161527 25 172 0.0 3.2 0.00 0.00 0.00 79 1021.7
20260830160035 25 175 1.6 8.0 0.00 0.00 0.00 77 1021.8
20260830154525 25 307 1.6 6.4 0.00 0.00 0.00 77 1021.7
20260830153020 25 208 1.6 8.0 0.00 0.00 0.00 78 1021.7
20260830151514 23 44 0.0 3.2 0.00 0.00 0.00 85 1021.9
20260830150040 23 158 3.2 8.0 0.00 0.00 0.00 84 1022.1
20260830144532 23 352 0.0 4.8 0.00 0.00 0.00 84 1021.9
20260830143031 23 335 0.0 3.2 0.00 0.00 0.00 85 1022.0
20260830141528 22 311 0.0 8.0 0.00 0.00 0.00 87 1022.3
20260830140028 21 221 0.0 3.2 0.00 0.00 0.00 91 1022.5
20260830134528 20 266 0.0 0.0 0.00 0.00 0.00 92 1022.7
20260830133023 19 266 0.0 0.0 0.00 0.00 0.00 91 1022.8
20260830131550 19 266 0.0 0.0 0.00 0.00 0.00 91 1023.0
20260830130036 18 266 0.0 0.0 0.00 0.00 0.00 91 1023.1
20260830124530 18 266 0.0 0.0 0.00 0.00 0.00 92 1023.2
20260830123032 18 266 0.0 0.0 0.00 0.00 0.00 93 1023.4
20260830121508 17 266 0.0 0.0 0.00 0.00 0.00 94 1023.4
20260830120006 17 266 0.0 0.0 0.00 0.00 0.00 94 1023.1
20260830114505 16 266 0.0 0.0 0.00 0.00 0.00 95 1023.0
20260830113004 16 266 0.0 0.0 0.00 0.00 0.00 95 1023.1
20260830111504 15 266 0.0 0.0 0.00 0.00 0.00 95 1023.1
20260830110024 15 266 0.0 0.0 0.00 0.00 0.00 95 1023.1
20260830104516 15 266 0.0 0.0 0.00 0.00 0.00 95 1023.1
20260830103014 15 266 0.0 0.0 0.00 0.00 0.00 95 1023.0
20260830101510 14 266 0.0 0.0 0.00 0.00 0.00 95 1023.0
20260830100008 14 266 0.0 0.0 0.00 0.00 0.00 94 1023.0
20260830094504 14 266 0.0 0.0 0.00 0.00 0.00 94 1023.0
20260830093006 14 266 0.0 0.0 0.00 0.00 0.00 94 1023.1
20260830091528 14 266 0.0 0.0 0.00 0.00 0.00 94 1022.9
20260830090028 14 266 0.0 0.0 0.00 0.00 0.00 94 1022.9
20260830084523 14 266 0.0 0.0 0.00 0.00 0.00 94 1022.9
20260830083016 14 266 0.0 0.0 0.00 0.00 0.00 94 1023.0
20260830081529 15 266 0.0 0.0 0.00 0.00 0.00 94 1023.2
20260830080013 14 266 0.0 0.0 0.00 0.00 0.00 94 1023.5
20260830074519 14 266 0.0 0.0 0.00 0.00 0.00 94 1023.4
20260830073005 14 266 0.0 0.0 0.00 0.00 0.00 94 1023.4
20260830071528 14 266 0.0 0.0 0.00 0.00 0.00 94 1023.4
20260830070032 14 266 0.0 0.0 0.00 0.00 0.00 94 1023.5
20260830064524 14 266 0.0 0.0 0.00 0.00 0.00 94 1023.6
20260830063025 14 266 0.0 0.0 0.00 0.00 0.00 94 1023.6
20260830061519 14 266 0.0 0.0 0.00 0.00 0.00 93 1023.7
20260830060037 14 266 0.0 0.0 0.00 0.00 0.00 93 1023.6
20260830054510 14 266 0.0 0.0 0.00 0.00 0.00 93 1023.6
20260830053032 14 266 0.0 0.0 0.00 0.00 0.00 93 1023.8
20260830051537 15 266 0.0 0.0 0.00 0.00 0.00 93 1023.7
20260830050028 15 266 0.0 0.0 0.00 0.00 0.00 93 1023.6
20260830044539 15 266 0.0 0.0 0.00 0.00 0.00 93 1023.5
20260830043024 15 266 0.0 0.0 0.00 0.00 0.00 92 1023.5
20260830041542 15 266 0.0 0.0 0.00 0.00 0.00 92 1023.4
20260830040016 15 266 0.0 0.0 0.00 0.00 0.00 91 1023.3
20260830034532 15 266 0.0 0.0 0.00 0.00 0.00 91 1023.2
20260830033038 15 266 0.0 0.0 0.00 0.00 0.00 91 1023.1
20260830031535 15 266 0.0 0.0 0.00 0.00 0.00 90 1023.2
20260830030039 16 266 0.0 0.0 0.00 0.00 0.00 89 1023.2
20260830024532 16 266 0.0 0.0 0.00 0.00 0.00 88 1023.2
20260830023027 16 266 0.0 0.0 0.00 0.00 0.00 88 1023.2
20260830021526 16 266 0.0 0.0 0.00 0.00 0.00 87 1023.1
20260830020030 16 266 0.0 0.0 0.00 0.00 0.00 85 1023.2
20260830014536 17 266 0.0 0.0 0.00 0.00 0.00 84 1023.1